QPF
0.00 0.00 0.00 0.01 0.09 0.09 0.02 0.00 0.00 0.00 0.00 0.00 0.00 0.00 0.00 0.00 0.02 0.06 0.01 0.00 0.00 0.00 0.00 0.00 0.00 0.00 0.00 0.01 0.01 0.01 0.02 0.02 0.02 0.02 0.01 0.02 0.01 0.01 0.02 0.02 0.03 0.03 0.02 0.03 0.05 0.02 0.02 0.02 0.01
0.00 0.00 0.00 0.04 0.14 0.04 0.00 0.00 0.00 0.00 0.00 0.00 0.00 0.00 0.00 0.00 0.00 0.00 0.00 0.00 0.00 0.00 0.00 0.00 0.00 0.00 0.00 0.01 0.01 0.01 0.01 0.01 0.01 0.02 0.02 0.02 0.02 0.02 0.03 0.02 0.03 0.02 0.02 0.03 0.03 0.02 0.02 0.02 0.01
0.00 0.00 0.01 0.06 0.07 0.01 0.00 0.00 0.00 0.00 0.00 0.00 0.00 0.00 0.00 0.00 0.00 0.00 0.00 0.00 0.00 0.00 0.00 0.00 0.00 0.00 0.00 0.01 0.01 0.01 0.01 0.01 0.01 0.02 0.02 0.02 0.02 0.03 0.03 0.03 0.02 0.02 0.02 0.02 0.02 0.02 0.02 0.02 0.02
0.00 0.00 0.01 0.02 0.01 0.01 0.00 0.00 0.00 0.00 0.00 0.00 0.01 0.00 0.00 0.00 0.00 0.00 0.00 0.00 0.00 0.00 0.00 0.00 0.00 0.00 0.00 0.00 0.01 0.01 0.01 0.01 0.01 0.02 0.02 0.02 0.03 0.03 0.03 0.03 0.03 0.03 0.02 0.02 0.02 0.02 0.02 0.02 0.03
0.00 0.00 0.03 0.03 0.01 0.00 0.00 0.00 0.00 0.01 0.01 0.01 0.00 0.00 0.00 0.00 0.00 0.00 0.00 0.00 0.01 0.01 0.01 0.01 0.00 0.00 0.00 0.00 0.01 0.01 0.01 0.01 0.01 0.02 0.02 0.02 0.02 0.02 0.02 0.03 0.03 0.03 0.02 0.01 0.01 0.02 0.02 0.02 0.02
0.00 0.01 0.04 0.02 0.01 0.00 0.00 0.00 0.00 0.01 0.03 0.01 0.00 0.01 0.04 0.01 0.00 0.00 0.00 0.00 0.05 0.09 0.04 0.03 0.02 0.01 0.01 0.01 0.01 0.01 0.01 0.02 0.01 0.02 0.02 0.02 0.02 0.02 0.04 0.05 0.04 0.03 0.02 0.01 0.01 0.02 0.02 0.02 0.02
0.01 0.03 0.02 0.01 0.01 0.00 0.00 0.00 0.00 0.00 0.02 0.01 0.01 0.01 0.07 0.01 0.00 0.00 0.00 0.00 0.03 0.07 0.05 0.05 0.05 0.03 0.02 0.02 0.02 0.02 0.02 0.02 0.02 0.02 0.02 0.02 0.02 0.02 0.02 0.05 0.05 0.03 0.02 0.02 0.01 0.02 0.04 0.03 0.02
0.00 0.01 0.01 0.01 0.00 0.00 0.00 0.00 0.00 0.00 0.01 0.01 0.00 0.02 0.04 0.00 0.00 0.00 0.00 0.01 0.06 0.08 0.03 0.02 0.03 0.03 0.04 0.03 0.03 0.03 0.02 0.02 0.02 0.02 0.02 0.01 0.01 0.01 0.02 0.03 0.04 0.04 0.03 0.03 0.03 0.03 0.04 0.03 0.01
0.00 0.00 0.01 0.01 0.00 0.00 0.00 0.00 0.00 0.00 0.01 0.01 0.00 0.01 0.01 0.00 0.00 0.00 0.01 0.02 0.06 0.09 0.04 0.03 0.03 0.03 0.05 0.04 0.03 0.03 0.02 0.02 0.02 0.02 0.02 0.04 0.06 0.04 0.03 0.03 0.03 0.03 0.03 0.04 0.05 0.04 0.03 0.03 0.03
0.00 0.01 0.02 0.01 0.01 0.00 0.00 0.00 0.00 0.00 0.04 0.06 0.02 0.01 0.00 0.00 0.00 0.01 0.02 0.02 0.03 0.03 0.04 0.05 0.04 0.05 0.05 0.05 0.05 0.05 0.04 0.03 0.05 0.05 0.04 0.10 0.13 0.12 0.06 0.02 0.02 0.02 0.03 0.03 0.05 0.04 0.02 0.05 0.06
0.00 0.01 0.01 0.01 0.00 0.00 0.00 0.00 0.00 0.00 0.04 0.05 0.03 0.01 0.00 0.00 0.01 0.02 0.03 0.03 0.03 0.04 0.03 0.04 0.06 0.05 0.04 0.07 0.08 0.08 0.09 0.07 0.09 0.08 0.08 0.12 0.11 0.07 0.06 0.03 0.02 0.03 0.03 0.05 0.03 0.03 0.04 0.07 0.08
0.00 0.00 0.00 0.00 0.00 0.00 0.00 0.00 0.00 0.00 0.01 0.01 0.01 0.03 0.01 0.00 0.01 0.02 0.02 0.02 0.03 0.04 0.05 0.04 0.06 0.06 0.05 0.06 0.09 0.10 0.09 0.07 0.07 0.07 0.07 0.07 0.09 0.08 0.07 0.07 0.05 0.05 0.08 0.11 0.08 0.09 0.10 0.09 0.05
0.00 0.00 0.00 0.00 0.00 0.00 0.00 0.00 0.00 0.00 0.00 0.00 0.00 0.01 0.01 0.01 0.02 0.02 0.02 0.03 0.02 0.02 0.03 0.03 0.04 0.06 0.07 0.08 0.07 0.08 0.09 0.07 0.06 0.06 0.06 0.05 0.06 0.07 0.08 0.08 0.08 0.06 0.06 0.07 0.08 0.07 0.08 0.08 0.06
0.00 0.00 0.00 0.00 0.00 0.00 0.00 0.00 0.00 0.00 0.00 0.00 0.00 0.00 0.00 0.01 0.01 0.01 0.02 0.04 0.04 0.04 0.03 0.03 0.05 0.05 0.06 0.05 0.06 0.07 0.07 0.08 0.07 0.06 0.04 0.05 0.07 0.07 0.07 0.07 0.07 0.07 0.07 0.06 0.05 0.05 0.05 0.07 0.06
0.00 0.00 0.00 0.00 0.00 0.00 0.00 0.00 0.00 0.00 0.00 0.00 0.00 0.00 0.00 0.00 0.01 0.02 0.03 0.02 0.03 0.06 0.04 0.04 0.04 0.05 0.06 0.07 0.06 0.06 0.07 0.07 0.08 0.09 0.07 0.06 0.07 0.08 0.06 0.07 0.06 0.06 0.06 0.05 0.04 0.05 0.06 0.06 0.06
0.00 0.00 0.00 0.00 0.00 0.00 0.00 0.00 0.00 0.00 0.00 0.00 0.00 0.00 0.00 0.00 0.01 0.03 0.02 0.01 0.02 0.03 0.04 0.04 0.04 0.06 0.07 0.09 0.08 0.06 0.07 0.08 0.10 0.10 0.08 0.07 0.08 0.07 0.06 0.06 0.05 0.04 0.03 0.03 0.05 0.05 0.06 0.07 0.07
0.00 0.00 0.00 0.00 0.00 0.00 0.00 0.00 0.00 0.00 0.00 0.00 0.02 0.02 0.00 0.00 0.01 0.01 0.01 0.01 0.02 0.04 0.05 0.05 0.07 0.08 0.08 0.10 0.11 0.11 0.10 0.09 0.09 0.08 0.07 0.07 0.07 0.05 0.05 0.06 0.07 0.05 0.04 0.04 0.03 0.04 0.05 0.09 0.08
0.00 0.00 0.00 0.00 0.00 0.00 0.00 0.00 0.00 0.00 0.00 0.00 0.01 0.03 0.01 0.00 0.00 0.01 0.01 0.01 0.01 0.03 0.06 0.05 0.06 0.08 0.10 0.12 0.12 0.14 0.14 0.12 0.09 0.08 0.07 0.07 0.06 0.05 0.05 0.06 0.06 0.04 0.05 0.06 0.06 0.07 0.06 0.07 0.05
0.00 0.00 0.00 0.00 0.00 0.00 0.00 0.00 0.00 0.00 0.00 0.00 0.00 0.00 0.00 0.00 0.00 0.00 0.01 0.01 0.01 0.04 0.06 0.06 0.05 0.07 0.08 0.10 0.10 0.10 0.11 0.12 0.09 0.05 0.05 0.05 0.05 0.06 0.06 0.07 0.07 0.04 0.05 0.05 0.04 0.04 0.05 0.05 0.03
0.00 0.00 0.00 0.00 0.00 0.00 0.00 0.00 0.00 0.00 0.00 0.00 0.00 0.00 0.00 0.00 0.00 0.00 0.01 0.01 0.02 0.03 0.03 0.03 0.04 0.06 0.07 0.10 0.12 0.11 0.12 0.10 0.07 0.06 0.08 0.04 0.04 0.05 0.05 0.07 0.06 0.05 0.07 0.05 0.04 0.05 0.06 0.06 0.03
0.00 0.00 0.00 0.00 0.00 0.00 0.00 0.00 0.00 0.00 0.00 0.00 0.00 0.00 0.00 0.00 0.00 0.01 0.01 0.02 0.02 0.02 0.03 0.03 0.04 0.05 0.07 0.10 0.12 0.14 0.14 0.13 0.10 0.09 0.08 0.06 0.03 0.03 0.04 0.05 0.06 0.06 0.04 0.05 0.04 0.04 0.05 0.06 0.04
0.00 0.00 0.00 0.00 0.00 0.00 0.00 0.00 0.00 0.00 0.00 0.00 0.00 0.00 0.00 0.00 0.01 0.01 0.02 0.02 0.01 0.02 0.03 0.04 0.06 0.06 0.07 0.10 0.10 0.10 0.09 0.10 0.09 0.08 0.08 0.08 0.06 0.04 0.04 0.04 0.04 0.04 0.04 0.07 0.04 0.03 0.04 0.06 0.05
0.00 0.00 0.00 0.00 0.00 0.00 0.00 0.00 0.00 0.00 0.00 0.00 0.00 0.00 0.01 0.01 0.00 0.01 0.01 0.02 0.02 0.01 0.02 0.04 0.07 0.08 0.06 0.08 0.10 0.12 0.12 0.13 0.12 0.10 0.10 0.09 0.09 0.07 0.05 0.05 0.05 0.05 0.05 0.06 0.05 0.05 0.03 0.03 0.03
0.00 0.00 0.00 0.00 0.00 0.00 0.00 0.00 0.00 0.00 0.00 0.00 0.00 0.01 0.01 0.01 0.00 0.01 0.01 0.02 0.02 0.02 0.04 0.06 0.08 0.08 0.08 0.08 0.10 0.10 0.13 0.14 0.12 0.11 0.11 0.10 0.09 0.08 0.07 0.06 0.05 0.04 0.05 0.07 0.06 0.06 0.04 0.04 0.04
0.00 0.00 0.00 0.00 0.00 0.00 0.00 0.00 0.00 0.00 0.00 0.00 0.00 0.00 0.00 0.00 0.01 0.01 0.01 0.01 0.01 0.02 0.04 0.05 0.08 0.08 0.08 0.08 0.10 0.09 0.13 0.15 0.12 0.12 0.11 0.10 0.07 0.06 0.08 0.08 0.07 0.05 0.05 0.06 0.06 0.05 0.06 0.06 0.05
0.00 0.00 0.00 0.00 0.00 0.00 0.00 0.00 0.00 0.00 0.00 0.00 0.00 0.00 0.00 0.00 0.00 0.01 0.01 0.00 0.00 0.01 0.04 0.06 0.09 0.10 0.10 0.09 0.09 0.10 0.13 0.14 0.11 0.12 0.10 0.08 0.05 0.05 0.06 0.09 0.08 0.07 0.07 0.06 0.07 0.06 0.05 0.05 0.04
0.00 0.00 0.00 0.00 0.00 0.01 0.01 0.00 0.00 0.00 0.00 0.00 0.00 0.00 0.00 0.00 0.01 0.01 0.02 0.01 0.00 0.01 0.03 0.06 0.09 0.11 0.11 0.12 0.11 0.10 0.11 0.11 0.11 0.12 0.11 0.08 0.08 0.07 0.09 0.08 0.07 0.09 0.10 0.11 0.10 0.07 0.05 0.05 0.04
0.00 0.00 0.00 0.00 0.00 0.01 0.01 0.00 0.01 0.00 0.00 0.00 0.00 0.00 0.00 0.00 0.00 0.01 0.02 0.02 0.01 0.01 0.02 0.03 0.05 0.09 0.11 0.13 0.13 0.11 0.12 0.11 0.11 0.13 0.12 0.11 0.10 0.10 0.12 0.10 0.08 0.07 0.07 0.10 0.10 0.07 0.07 0.07 0.05
0.00 0.00 0.00 0.00 0.00 0.00 0.00 0.01 0.01 0.02 0.01 0.00 0.00 0.00 0.00 0.00 0.01 0.02 0.02 0.01 0.01 0.01 0.01 0.01 0.02 0.05 0.08 0.09 0.09 0.10 0.13 0.13 0.12 0.12 0.13 0.13 0.11 0.12 0.13 0.11 0.09 0.07 0.06 0.07 0.09 0.11 0.09 0.07 0.06
0.00 0.00 0.00 0.00 0.00 0.00 0.00 0.01 0.01 0.03 0.01 0.01 0.02 0.01 0.00 0.00 0.00 0.02 0.01 0.01 0.01 0.01 0.02 0.02 0.01 0.03 0.04 0.04 0.05 0.06 0.09 0.11 0.10 0.09 0.13 0.15 0.12 0.10 0.10 0.10 0.11 0.08 0.07 0.07 0.07 0.09 0.09 0.08 0.08
MSLP
1006.32 1007.06 1007.84 1008.48 1008.86 1008.92 1008.68 1008.23 1007.69 1007.22 1006.94 1006.90 1007.09 1007.44 1007.85 1008.23 1008.49 1008.63 1008.67 1008.70 1008.78 1009.00 1009.37 1009.89 1010.50 1011.11 1011.64 1012.05 1012.32 1012.48 1012.59 1012.71 1012.90 1013.16 1013.50 1013.86 1014.19 1014.46 1014.63 1014.71 1014.74 1014.76 1014.83 1014.95 1015.15 1015.39 1015.64 1015.85 1016.01
1006.62 1007.48 1008.28 1008.86 1009.10 1008.97 1008.53 1007.89 1007.21 1006.66 1006.35 1006.32 1006.55 1006.95 1007.40 1007.81 1008.09 1008.25 1008.32 1008.40 1008.57 1008.89 1009.37 1010.00 1010.70 1011.37 1011.94 1012.35 1012.61 1012.76 1012.86 1012.98 1013.16 1013.44 1013.78 1014.14 1014.46 1014.69 1014.82 1014.86 1014.86 1014.87 1014.93 1015.07 1015.29 1015.57 1015.84 1016.08 1016.24
1007.03 1007.97 1008.76 1009.24 1009.31 1008.98 1008.33 1007.51 1006.70 1006.09 1005.77 1005.77 1006.04 1006.49 1006.98 1007.41 1007.71 1007.88 1007.98 1008.11 1008.34 1008.75 1009.34 1010.06 1010.85 1011.58 1012.19 1012.63 1012.90 1013.06 1013.16 1013.28 1013.47 1013.75 1014.08 1014.42 1014.71 1014.91 1015.00 1015.02 1015.00 1015.01 1015.08 1015.25 1015.51 1015.81 1016.10 1016.33 1016.49
1007.49 1008.46 1009.19 1009.54 1009.43 1008.91 1008.08 1007.12 1006.22 1005.58 1005.27 1005.32 1005.65 1006.14 1006.66 1007.10 1007.41 1007.58 1007.70 1007.86 1008.15 1008.63 1009.30 1010.11 1010.96 1011.76 1012.41 1012.88 1013.17 1013.34 1013.45 1013.59 1013.78 1014.06 1014.38 1014.70 1014.96 1015.14 1015.21 1015.22 1015.21 1015.24 1015.35 1015.55 1015.83 1016.14 1016.42 1016.63 1016.75
1007.91 1008.84 1009.47 1009.67 1009.40 1008.71 1007.75 1006.71 1005.80 1005.17 1004.92 1005.03 1005.42 1005.96 1006.51 1006.95 1007.25 1007.42 1007.54 1007.72 1008.05 1008.57 1009.30 1010.16 1011.06 1011.89 1012.58 1013.08 1013.39 1013.58 1013.71 1013.86 1014.06 1014.34 1014.65 1014.96 1015.21 1015.38 1015.46 1015.48 1015.50 1015.57 1015.72 1015.96 1016.25 1016.55 1016.80 1016.97 1017.03
1008.20 1009.03 1009.53 1009.57 1009.15 1008.36 1007.34 1006.29 1005.42 1004.88 1004.73 1004.93 1005.39 1005.97 1006.53 1006.97 1007.26 1007.41 1007.52 1007.70 1008.05 1008.59 1009.34 1010.22 1011.14 1011.99 1012.69 1013.20 1013.53 1013.74 1013.89 1014.05 1014.28 1014.56 1014.88 1015.19 1015.44 1015.62 1015.73 1015.79 1015.86 1015.98 1016.16 1016.42 1016.71 1016.99 1017.19 1017.29 1017.28
1008.32 1008.99 1009.31 1009.21 1008.68 1007.83 1006.83 1005.86 1005.11 1004.70 1004.68 1005.00 1005.53 1006.16 1006.73 1007.15 1007.41 1007.54 1007.64 1007.81 1008.14 1008.69 1009.43 1010.30 1011.21 1012.04 1012.72 1013.23 1013.56 1013.79 1013.96 1014.15 1014.40 1014.70 1015.03 1015.36 1015.64 1015.85 1015.99 1016.10 1016.22 1016.38 1016.60 1016.86 1017.14 1017.37 1017.52 1017.54 1017.47
1008.25 1008.73 1008.86 1008.61 1008.01 1007.17 1006.24 1005.41 1004.83 1004.60 1004.73 1005.16 1005.78 1006.44 1007.01 1007.42 1007.65 1007.76 1007.84 1008.00 1008.32 1008.84 1009.55 1010.38 1011.24 1012.02 1012.67 1013.16 1013.49 1013.72 1013.92 1014.14 1014.41 1014.75 1015.11 1015.46 1015.77 1016.01 1016.20 1016.35 1016.51 1016.70 1016.94 1017.20 1017.45 1017.64 1017.72 1017.69 1017.56
1008.04 1008.30 1008.25 1007.88 1007.24 1006.44 1005.63 1004.97 1004.58 1004.54 1004.82 1005.37 1006.04 1006.72 1007.29 1007.68 1007.90 1007.99 1008.06 1008.21 1008.51 1009.00 1009.66 1010.43 1011.22 1011.94 1012.54 1012.99 1013.31 1013.55 1013.77 1014.02 1014.34 1014.71 1015.10 1015.49 1015.83 1016.11 1016.33 1016.51 1016.70 1016.91 1017.14 1017.39 1017.60 1017.75 1017.80 1017.72 1017.56
1007.76 1007.81 1007.59 1007.13 1006.47 1005.74 1005.07 1004.58 1004.37 1004.49 1004.90 1005.53 1006.24 1006.93 1007.48 1007.86 1008.07 1008.17 1008.25 1008.40 1008.69 1009.15 1009.76 1010.46 1011.17 1011.81 1012.35 1012.75 1013.06 1013.30 1013.55 1013.84 1014.19 1014.60 1015.03 1015.44 1015.82 1016.12 1016.37 1016.57 1016.76 1016.97 1017.19 1017.41 1017.60 1017.72 1017.74 1017.66 1017.50
1007.50 1007.36 1007.01 1006.47 1005.82 1005.16 1004.61 1004.27 1004.21 1004.44 1004.94 1005.60 1006.31 1006.98 1007.53 1007.90 1008.12 1008.25 1008.36 1008.54 1008.83 1009.27 1009.83 1010.46 1011.09 1011.65 1012.12 1012.49 1012.77 1013.02 1013.29 1013.61 1014.00 1014.44 1014.90 1015.35 1015.74 1016.07 1016.33 1016.54 1016.73 1016.92 1017.12 1017.32 1017.48 1017.59 1017.62 1017.56 1017.43
1007.33 1007.06 1006.60 1006.02 1005.38 1004.78 1004.33 1004.08 1004.10 1004.39 1004.90 1005.54 1006.23 1006.86 1007.39 1007.77 1008.03 1008.20 1008.37 1008.60 1008.92 1009.36 1009.88 1010.45 1011.01 1011.51 1011.92 1012.25 1012.51 1012.77 1013.05 1013.40 1013.81 1014.27 1014.76 1015.22 1015.63 1015.97 1016.23 1016.44 1016.62 1016.80 1016.98 1017.16 1017.32 1017.43 1017.49 1017.47 1017.41
1007.29 1006.93 1006.41 1005.81 1005.19 1004.64 1004.23 1004.03 1004.07 1004.34 1004.80 1005.37 1005.99 1006.58 1007.09 1007.49 1007.80 1008.06 1008.31 1008.61 1008.98 1009.43 1009.94 1010.46 1010.97 1011.41 1011.78 1012.07 1012.33 1012.58 1012.87 1013.22 1013.64 1014.12 1014.61 1015.08 1015.49 1015.84 1016.11 1016.32 1016.50 1016.67 1016.84 1017.01 1017.17 1017.31 1017.40 1017.45 1017.46
1007.38 1006.98 1006.44 1005.84 1005.24 1004.71 1004.32 1004.11 1004.10 1004.29 1004.65 1005.12 1005.65 1006.19 1006.68 1007.12 1007.50 1007.86 1008.21 1008.60 1009.03 1009.51 1010.01 1010.52 1010.99 1011.40 1011.73 1012.01 1012.25 1012.50 1012.78 1013.12 1013.53 1013.98 1014.46 1014.92 1015.34 1015.69 1015.98 1016.21 1016.40 1016.57 1016.74 1016.92 1017.09 1017.26 1017.40 1017.51 1017.59
1007.55 1007.14 1006.62 1006.04 1005.47 1004.96 1004.55 1004.29 1004.19 1004.27 1004.50 1004.85 1005.28 1005.76 1006.25 1006.73 1007.20 1007.66 1008.12 1008.60 1009.10 1009.61 1010.13 1010.62 1011.07 1011.46 1011.79 1012.05 1012.29 1012.52 1012.78 1013.09 1013.46 1013.87 1014.31 1014.75 1015.17 1015.53 1015.84 1016.10 1016.32 1016.51 1016.70 1016.89 1017.09 1017.28 1017.47 1017.63 1017.78
1007.73 1007.34 1006.85 1006.33 1005.80 1005.30 1004.87 1004.55 1004.34 1004.28 1004.37 1004.59 1004.93 1005.36 1005.86 1006.39 1006.95 1007.51 1008.07 1008.63 1009.18 1009.73 1010.26 1010.75 1011.20 1011.59 1011.91 1012.19 1012.42 1012.64 1012.87 1013.13 1013.43 1013.78 1014.17 1014.57 1014.97 1015.34 1015.68 1015.98 1016.25 1016.49 1016.71 1016.92 1017.14 1017.36 1017.57 1017.78 1017.97
1007.84 1007.50 1007.08 1006.63 1006.16 1005.69 1005.25 1004.86 1004.54 1004.35 1004.29 1004.39 1004.65 1005.04 1005.54 1006.13 1006.76 1007.41 1008.05 1008.67 1009.26 1009.83 1010.36 1010.86 1011.31 1011.72 1012.07 1012.36 1012.60 1012.81 1013.00 1013.21 1013.43 1013.70 1014.01 1014.36 1014.73 1015.12 1015.49 1015.84 1016.16 1016.45 1016.71 1016.96 1017.20 1017.43 1017.67 1017.90 1018.13
1007.85 1007.57 1007.26 1006.91 1006.52 1006.10 1005.65 1005.20 1004.79 1004.47 1004.29 1004.27 1004.45 1004.81 1005.32 1005.94 1006.63 1007.34 1008.03 1008.68 1009.29 1009.86 1010.39 1010.89 1011.36 1011.79 1012.18 1012.51 1012.78 1012.99 1013.16 1013.30 1013.45 1013.62 1013.85 1014.13 1014.47 1014.85 1015.25 1015.66 1016.04 1016.38 1016.69 1016.97 1017.22 1017.47 1017.71 1017.96 1018.21
1007.75 1007.56 1007.37 1007.16 1006.88 1006.52 1006.09 1005.59 1005.09 1004.65 1004.34 1004.22 1004.32 1004.64 1005.14 1005.79 1006.51 1007.25 1007.96 1008.61 1009.21 1009.76 1010.28 1010.78 1011.28 1011.76 1012.20 1012.59 1012.91 1013.14 1013.30 1013.39 1013.46 1013.55 1013.68 1013.90 1014.19 1014.56 1014.98 1015.43 1015.87 1016.27 1016.62 1016.92 1017.19 1017.44 1017.69 1017.95 1018.22
1007.57 1007.51 1007.48 1007.41 1007.26 1006.99 1006.57 1006.04 1005.45 1004.89 1004.45 1004.22 1004.23 1004.49 1004.97 1005.61 1006.33 1007.08 1007.78 1008.41 1008.98 1009.50 1010.00 1010.51 1011.04 1011.58 1012.10 1012.57 1012.96 1013.24 1013.40 1013.47 1013.48 1013.49 1013.54 1013.68 1013.92 1014.27 1014.70 1015.18 1015.65 1016.10 1016.49 1016.82 1017.10 1017.35 1017.60 1017.87 1018.15
1007.37 1007.47 1007.62 1007.73 1007.72 1007.52 1007.12 1006.54 1005.86 1005.17 1004.60 1004.23 1004.13 1004.31 1004.74 1005.35 1006.06 1006.78 1007.46 1008.06 1008.59 1009.08 1009.57 1010.09 1010.65 1011.25 1011.86 1012.43 1012.91 1013.25 1013.45 1013.52 1013.51 1013.46 1013.44 1013.51 1013.70 1014.01 1014.43 1014.92 1015.42 1015.90 1016.31 1016.66 1016.95 1017.21 1017.46 1017.73 1018.03
1007.22 1007.51 1007.86 1008.15 1008.27 1008.14 1007.74 1007.10 1006.30 1005.47 1004.74 1004.23 1004.00 1004.08 1004.43 1005.00 1005.67 1006.36 1007.01 1007.58 1008.08 1008.55 1009.02 1009.55 1010.16 1010.83 1011.52 1012.19 1012.76 1013.19 1013.45 1013.54 1013.52 1013.44 1013.37 1013.38 1013.52 1013.80 1014.19 1014.68 1015.19 1015.68 1016.11 1016.47 1016.77 1017.03 1017.28 1017.56 1017.88
1007.15 1007.65 1008.20 1008.65 1008.89 1008.82 1008.40 1007.68 1006.76 1005.77 1004.87 1004.20 1003.83 1003.80 1004.07 1004.57 1005.20 1005.87 1006.49 1007.04 1007.52 1007.98 1008.46 1009.00 1009.64 1010.36 1011.13 1011.88 1012.53 1013.04 1013.36 1013.50 1013.49 1013.40 1013.31 1013.28 1013.38 1013.62 1013.99 1014.45 1014.96 1015.45 1015.89 1016.26 1016.57 1016.83 1017.08 1017.36 1017.69
1007.16 1007.86 1008.59 1009.19 1009.52 1009.48 1009.03 1008.23 1007.18 1006.04 1004.98 1004.16 1003.65 1003.51 1003.70 1004.14 1004.74 1005.38 1006.00 1006.55 1007.03 1007.48 1007.96 1008.51 1009.17 1009.93 1010.74 1011.54 1012.25 1012.82 1013.19 1013.37 1013.38 1013.30 1013.20 1013.15 1013.22 1013.43 1013.77 1014.21 1014.70 1015.19 1015.64 1016.02 1016.33 1016.60 1016.86 1017.14 1017.46
1007.22 1008.09 1008.97 1009.68 1010.06 1010.03 1009.55 1008.67 1007.52 1006.26 1005.08 1004.13 1003.52 1003.29 1003.41 1003.80 1004.38 1005.01 1005.63 1006.19 1006.68 1007.15 1007.63 1008.18 1008.84 1009.58 1010.39 1011.19 1011.92 1012.50 1012.89 1013.10 1013.13 1013.07 1012.97 1012.92 1012.98 1013.16 1013.48 1013.91 1014.39 1014.88 1015.33 1015.72 1016.05 1016.33 1016.59 1016.87 1017.18
1007.27 1008.26 1009.22 1009.99 1010.40 1010.37 1009.86 1008.95 1007.74 1006.42 1005.17 1004.16 1003.48 1003.19 1003.27 1003.64 1004.19 1004.83 1005.47 1006.04 1006.56 1007.03 1007.51 1008.04 1008.66 1009.36 1010.11 1010.86 1011.54 1012.08 1012.46 1012.66 1012.70 1012.64 1012.56 1012.52 1012.57 1012.75 1013.07 1013.49 1013.97 1014.46 1014.93 1015.35 1015.70 1016.00 1016.28 1016.56 1016.86
1007.23 1008.28 1009.27 1010.04 1010.45 1010.41 1009.91 1009.00 1007.81 1006.51 1005.27 1004.26 1003.58 1003.28 1003.34 1003.69 1004.25 1004.89 1005.54 1006.13 1006.66 1007.14 1007.60 1008.10 1008.65 1009.26 1009.91 1010.54 1011.12 1011.57 1011.88 1012.04 1012.06 1012.00 1011.92 1011.89 1011.96 1012.15 1012.47 1012.90 1013.40 1013.92 1014.42 1014.87 1015.27 1015.61 1015.92 1016.22 1016.52
1007.08 1008.09 1009.04 1009.76 1010.15 1010.12 1009.65 1008.82 1007.72 1006.52 1005.38 1004.45 1003.83 1003.56 1003.63 1003.98 1004.53 1005.16 1005.81 1006.41 1006.95 1007.42 1007.86 1008.30 1008.77 1009.26 1009.77 1010.26 1010.68 1010.99 1011.19 1011.26 1011.23 1011.15 1011.07 1011.05 1011.13 1011.35 1011.69 1012.15 1012.68 1013.24 1013.79 1014.31 1014.77 1015.18 1015.55 1015.88 1016.20
1006.80 1007.71 1008.54 1009.18 1009.52 1009.50 1009.11 1008.40 1007.47 1006.46 1005.50 1004.72 1004.21 1004.00 1004.10 1004.45 1004.97 1005.58 1006.21 1006.80 1007.33 1007.80 1008.21 1008.60 1008.98 1009.35 1009.70 1010.01 1010.25 1010.40 1010.44 1010.40 1010.29 1010.16 1010.07 1010.06 1010.16 1010.40 1010.78 1011.28 1011.85 1012.47 1013.10 1013.70 1014.25 1014.76 1015.21 1015.61 1015.98
1006.44 1007.17 1007.84 1008.35 1008.63 1008.63 1008.34 1007.81 1007.10 1006.33 1005.60 1005.02 1004.65 1004.53 1004.65 1004.98 1005.47 1006.04 1006.63 1007.20 1007.71 1008.17 1008.57 1008.92 1009.22 1009.49 1009.70 1009.84 1009.90 1009.87 1009.76 1009.58 1009.38 1009.19 1009.06 1009.04 1009.16 1009.43 1009.84 1010.38 1011.02 1011.71 1012.42 1013.12 1013.78 1014.40 1014.97 1015.47 1015.92
Thickness
5841 5844 5843 5835 5807 5797 5807 5826 5834 5831 5833 5843 5846 5838 5824 5814 5802 5790 5820 5828 5818 5807 5798 5792 5789 5786 5784 5782 5779 5777 5775 5772 5770 5768 5767 5765 5764 5762 5761 5760 5759 5758 5757 5756 5755 5754 5753 5752 5752
5848 5852 5843 5821 5794 5790 5809 5831 5831 5835 5842 5849 5847 5840 5827 5819 5826 5822 5824 5824 5817 5807 5799 5793 5788 5785 5782 5780 5777 5775 5773 5771 5768 5767 5765 5764 5762 5760 5759 5758 5757 5756 5755 5754 5753 5752 5751 5750 5750
5849 5853 5833 5812 5798 5804 5815 5835 5839 5847 5853 5848 5839 5837 5827 5819 5827 5826 5827 5826 5818 5808 5799 5790 5786 5783 5780 5778 5776 5773 5771 5769 5767 5765 5763 5762 5760 5759 5758 5756 5755 5754 5753 5752 5752 5751 5750 5749 5748
5850 5847 5832 5812 5813 5834 5839 5846 5850 5845 5847 5848 5839 5828 5827 5836 5836 5833 5832 5828 5816 5806 5796 5788 5784 5781 5779 5776 5774 5771 5769 5767 5765 5763 5762 5760 5758 5757 5756 5755 5753 5752 5751 5750 5750 5749 5748 5747 5747
5854 5836 5807 5803 5822 5847 5858 5860 5856 5843 5840 5841 5838 5822 5817 5836 5843 5837 5833 5826 5815 5805 5795 5786 5782 5779 5776 5774 5772 5769 5767 5765 5764 5762 5760 5758 5757 5755 5754 5753 5752 5751 5750 5749 5748 5747 5746 5745 5746
5840 5830 5801 5802 5826 5851 5862 5866 5859 5847 5840 5842 5837 5823 5815 5835 5836 5834 5833 5825 5818 5805 5794 5785 5780 5777 5774 5772 5769 5767 5765 5764 5762 5760 5758 5757 5755 5754 5753 5751 5750 5749 5748 5747 5746 5745 5744 5744 5744
5831 5818 5810 5816 5827 5842 5860 5870 5859 5848 5839 5842 5844 5820 5815 5829 5835 5836 5831 5824 5817 5807 5794 5784 5779 5775 5772 5769 5767 5765 5763 5762 5760 5759 5757 5755 5754 5752 5751 5750 5749 5748 5747 5746 5745 5744 5743 5742 5743
5848 5828 5819 5828 5834 5842 5865 5870 5867 5856 5846 5859 5853 5822 5812 5827 5836 5834 5828 5821 5813 5804 5794 5786 5780 5775 5771 5767 5764 5763 5761 5760 5758 5757 5756 5754 5753 5751 5750 5749 5747 5746 5745 5744 5743 5742 5741 5741 5742
5854 5823 5813 5824 5838 5848 5866 5863 5867 5869 5855 5849 5851 5841 5837 5839 5836 5827 5819 5812 5806 5800 5794 5789 5783 5776 5772 5768 5763 5761 5759 5758 5756 5755 5754 5753 5752 5751 5749 5748 5746 5745 5744 5743 5742 5741 5741 5741 5741
5846 5818 5824 5847 5858 5858 5864 5861 5863 5855 5839 5831 5832 5840 5842 5838 5830 5820 5812 5805 5800 5795 5792 5789 5784 5778 5774 5769 5763 5760 5759 5756 5756 5755 5753 5753 5753 5752 5750 5747 5745 5744 5743 5742 5741 5740 5740 5741 5741
5846 5833 5843 5857 5866 5866 5862 5863 5868 5851 5832 5831 5829 5832 5835 5832 5826 5819 5813 5807 5802 5798 5793 5789 5784 5779 5775 5770 5763 5761 5760 5757 5756 5755 5753 5753 5752 5751 5748 5747 5744 5743 5743 5742 5741 5740 5741 5742 5742
5847 5849 5857 5859 5868 5865 5860 5862 5859 5855 5849 5854 5849 5842 5836 5829 5824 5818 5812 5808 5803 5797 5791 5788 5783 5778 5774 5770 5766 5762 5761 5757 5756 5754 5753 5753 5752 5751 5749 5748 5746 5745 5745 5744 5743 5743 5743 5742 5743
5846 5850 5860 5867 5868 5867 5864 5858 5856 5856 5864 5864 5855 5845 5836 5831 5827 5822 5817 5809 5803 5795 5790 5786 5782 5776 5772 5768 5765 5762 5760 5758 5756 5754 5753 5752 5752 5751 5750 5749 5748 5748 5747 5746 5745 5745 5743 5743 5743
5849 5854 5857 5862 5865 5865 5858 5857 5856 5854 5864 5858 5850 5842 5837 5831 5827 5821 5814 5806 5801 5794 5788 5785 5781 5776 5771 5766 5764 5762 5759 5758 5756 5754 5752 5752 5751 5750 5749 5748 5748 5748 5748 5747 5746 5745 5744 5743 5742
5852 5842 5846 5856 5862 5864 5859 5842 5848 5858 5861 5852 5847 5843 5837 5833 5827 5820 5814 5807 5801 5793 5788 5783 5779 5774 5769 5765 5762 5760 5758 5756 5755 5753 5752 5750 5750 5749 5748 5748 5748 5748 5748 5747 5746 5745 5744 5743 5742
5841 5831 5825 5850 5861 5863 5847 5824 5848 5861 5856 5846 5844 5841 5835 5831 5827 5822 5816 5809 5803 5795 5789 5784 5780 5773 5767 5763 5760 5759 5758 5756 5753 5751 5750 5749 5749 5748 5748 5748 5748 5748 5747 5746 5745 5745 5743 5742 5741
5825 5819 5827 5846 5863 5860 5847 5832 5850 5863 5855 5843 5839 5834 5832 5827 5824 5821 5816 5809 5803 5796 5788 5782 5779 5771 5766 5762 5759 5757 5756 5755 5752 5750 5749 5747 5747 5747 5746 5747 5747 5747 5747 5746 5746 5745 5743 5740 5739
5817 5828 5836 5842 5858 5853 5841 5838 5850 5858 5853 5844 5838 5831 5827 5824 5821 5819 5814 5809 5802 5795 5788 5782 5777 5771 5765 5760 5756 5753 5752 5752 5751 5750 5748 5746 5746 5746 5745 5745 5745 5747 5747 5745 5745 5743 5742 5740 5739
5829 5827 5828 5842 5859 5847 5835 5835 5844 5852 5848 5843 5837 5833 5827 5824 5823 5818 5812 5806 5799 5792 5785 5779 5774 5769 5763 5758 5753 5749 5747 5748 5748 5748 5747 5745 5745 5745 5744 5746 5745 5745 5745 5744 5744 5742 5740 5739 5740
5827 5818 5822 5837 5854 5842 5831 5832 5845 5850 5846 5844 5838 5832 5827 5822 5817 5812 5806 5802 5796 5789 5784 5778 5773 5768 5763 5758 5755 5752 5749 5747 5746 5746 5745 5744 5744 5744 5745 5744 5744 5744 5743 5743 5742 5741 5738 5738 5739
5819 5816 5820 5824 5839 5842 5830 5821 5835 5845 5847 5843 5841 5837 5831 5823 5814 5808 5803 5798 5794 5788 5782 5778 5773 5768 5763 5759 5754 5751 5747 5744 5742 5742 5742 5743 5743 5743 5744 5744 5744 5743 5743 5741 5740 5740 5737 5734 5736
5809 5828 5828 5824 5816 5812 5822 5801 5824 5834 5833 5833 5835 5833 5829 5824 5816 5809 5802 5796 5792 5788 5783 5778 5772 5767 5763 5759 5754 5749 5744 5741 5741 5741 5742 5742 5742 5743 5743 5743 5742 5742 5742 5741 5740 5740 5739 5736 5732
5819 5834 5830 5823 5812 5805 5814 5805 5815 5830 5820 5825 5832 5831 5828 5822 5816 5808 5803 5798 5793 5789 5782 5776 5771 5766 5762 5759 5755 5750 5747 5745 5743 5742 5741 5740 5741 5741 5742 5741 5741 5741 5740 5740 5740 5740 5739 5737 5734
5830 5824 5819 5816 5807 5785 5803 5799 5804 5823 5824 5826 5827 5826 5822 5818 5814 5808 5804 5798 5792 5788 5781 5775 5769 5764 5762 5758 5754 5750 5747 5745 5742 5740 5738 5738 5739 5740 5741 5740 5740 5740 5739 5739 5739 5738 5737 5736 5735
5819 5798 5779 5776 5777 5782 5811 5804 5810 5831 5837 5833 5826 5823 5821 5817 5812 5805 5799 5794 5789 5784 5779 5774 5768 5763 5761 5758 5754 5752 5749 5746 5743 5741 5739 5738 5738 5739 5740 5740 5739 5739 5739 5738 5738 5736 5735 5734 5733
5810 5801 5775 5766 5775 5786 5804 5797 5813 5836 5840 5837 5831 5824 5819 5815 5811 5805 5799 5794 5789 5784 5779 5773 5767 5762 5760 5757 5754 5752 5750 5746 5745 5743 5741 5739 5740 5741 5741 5740 5739 5738 5737 5737 5736 5735 5734 5733 5732
5805 5803 5812 5796 5789 5782 5791 5800 5813 5829 5828 5827 5823 5818 5813 5812 5810 5804 5799 5794 5788 5783 5779 5774 5768 5763 5760 5757 5754 5752 5749 5747 5745 5743 5741 5740 5741 5741 5741 5739 5738 5737 5736 5735 5734 5733 5732 5731 5730
5818 5814 5804 5788 5770 5766 5783 5789 5793 5805 5809 5816 5814 5812 5811 5809 5806 5801 5797 5793 5788 5784 5779 5774 5769 5764 5760 5757 5755 5752 5749 5746 5744 5742 5740 5740 5740 5740 5739 5738 5736 5735 5734 5733 5731 5730 5729 5728 5727
5804 5802 5800 5798 5794 5776 5767 5773 5806 5805 5811 5812 5812 5813 5810 5807 5802 5797 5793 5791 5787 5783 5778 5772 5767 5763 5760 5757 5755 5752 5749 5746 5744 5742 5740 5740 5739 5738 5737 5736 5734 5732 5731 5730 5728 5726 5725 5724 5723
5816 5806 5800 5780 5781 5791 5783 5780 5819 5816 5817 5816 5813 5812 5811 5806 5802 5796 5791 5788 5784 5780 5776 5771 5767 5763 5760 5757 5754 5750 5748 5745 5742 5740 5740 5739 5737 5736 5735 5733 5731 5729 5728 5727 5725 5722 5722 5720 5719